| time (UTC) | temp F | wind direction | speed knots | gust knots | rain 1hr in | rain 24hr in | rain mn in | humidity % | barometer mb |
| 20260504041554 | 54 | 180 | 4.3 | 12.2 | 0.00 | 0.05 | 0.00 | 65 | 1013.3 |
| 20260504040055 | 54 | 150 | 3.5 | 13.0 | 0.00 | 0.05 | 0.00 | 65 | 1013.4 |
| 20260504034557 | 54 | 136 | 2.6 | 8.7 | 0.00 | 0.05 | 0.05 | 65 | 1013.6 |
| 20260504033048 | 55 | 109 | 4.3 | 11.3 | 0.00 | 0.05 | 0.05 | 64 | 1013.7 |
| 20260504031551 | 55 | 150 | 3.5 | 9.6 | 0.00 | 0.05 | 0.05 | 64 | 1013.7 |
| 20260504030055 | 55 | 186 | 3.5 | 8.7 | 0.00 | 0.05 | 0.05 | 63 | 1013.9 |
| 20260504024555 | 55 | 184 | 2.6 | 12.2 | 0.00 | 0.05 | 0.05 | 63 | 1014.2 |
| 20260504023049 | 56 | 134 | 3.5 | 10.4 | 0.00 | 0.05 | 0.05 | 62 | 1014.2 |
| 20260504021554 | 56 | 179 | 2.6 | 8.7 | 0.00 | 0.05 | 0.05 | 61 | 1014.2 |
| 20260504020117 | 56 | 148 | 2.6 | 8.7 | 0.00 | 0.05 | 0.05 | 60 | 1014.3 |
| 20260504014547 | 56 | 146 | 2.6 | 8.7 | 0.00 | 0.05 | 0.05 | 60 | 1014.3 |
| 20260504013110 | 57 | 189 | 1.7 | 7.0 | 0.00 | 0.05 | 0.05 | 59 | 1014.4 |
| 20260504011552 | 57 | 0 | 3.5 | 10.4 | 0.00 | 0.05 | 0.05 | 58 | 1014.3 |
| 20260504010047 | 57 | 184 | 2.6 | 9.6 | 0.00 | 0.05 | 0.05 | 57 | 1014.4 |
| 20260504004548 | 57 | 195 | 1.7 | 7.0 | 0.00 | 0.05 | 0.05 | 57 | 1014.3 |
| 20260504003047 | 57 | 175 | 4.3 | 8.7 | 0.00 | 0.05 | 0.05 | 57 | 1014.5 |
| 20260504001550 | 57 | 144 | 0.9 | 6.1 | 0.00 | 0.05 | 0.05 | 57 | 1014.4 |
| 20260504000049 | 57 | 163 | 0.9 | 7.8 | 0.00 | 0.05 | 0.05 | 58 | 1014.5 |
| 20260503234544 | 58 | 151 | 1.7 | 10.4 | 0.00 | 0.05 | 0.05 | 58 | 1014.6 |
| 20260503233048 | 57 | 0 | 0.9 | 7.8 | 0.00 | 0.05 | 0.05 | 58 | 1014.7 |
| 20260503231548 | 55 | 213 | 0.9 | 6.1 | 0.00 | 0.05 | 0.05 | 62 | 1014.6 |
| 20260503230048 | 54 | 0 | 0.0 | 2.6 | 0.00 | 0.05 | 0.05 | 70 | 1014.5 |
| 20260503224555 | 54 | 0 | 0.9 | 4.3 | 0.00 | 0.05 | 0.05 | 70 | 1014.6 |
| 20260503223051 | 54 | 123 | 0.9 | 7.8 | 0.00 | 0.05 | 0.05 | 70 | 1015.1 |
| 20260503221600 | 54 | 121 | 2.6 | 7.0 | 0.00 | 0.05 | 0.05 | 69 | 1015.2 |
| 20260503220052 | 56 | 164 | 2.6 | 6.1 | 0.00 | 0.05 | 0.05 | 67 | 1015.3 |
| 20260503214547 | 55 | 180 | 3.5 | 8.7 | 0.00 | 0.05 | 0.05 | 69 | 1015.5 |
| 20260503213051 | 54 | 121 | 2.6 | 6.1 | 0.00 | 0.05 | 0.05 | 67 | 1016.0 |
| 20260503211549 | 54 | 0 | 0.9 | 3.5 | 0.00 | 0.05 | 0.05 | 76 | 1016.3 |
| 20260503210053 | 52 | 132 | 0.0 | 3.5 | 0.00 | 0.05 | 0.05 | 79 | 1016.4 |
| 20260503204614 | 51 | 0 | 0.0 | 2.6 | 0.01 | 0.05 | 0.05 | 82 | 1016.8 |
| 20260503203052 | 50 | 0 | 0.0 | 1.7 | 0.05 | 0.05 | 0.05 | 82 | 1017.1 |
| 20260503201549 | 49 | 0 | 0.0 | 3.5 | 0.05 | 0.05 | 0.05 | 84 | 1017.5 |
| 20260503200052 | 49 | 0 | 0.0 | 0.9 | 0.05 | 0.05 | 0.05 | 78 | 1018.3 |
| 20260503194551 | 50 | 0 | 0.0 | 6.1 | 0.03 | 0.03 | 0.03 | 74 | 1018.8 |
| 20260503193056 | 52 | 40 | 1.7 | 12.2 | 0.00 | 0.00 | 0.00 | 68 | 1019.5 |
| 20260503191608 | 55 | 128 | 5.2 | 14.8 | 0.00 | 0.00 | 0.00 | 57 | 1019.3 |
| 20260503190054 | 57 | 165 | 3.5 | 11.3 | 0.00 | 0.00 | 0.00 | 47 | 1018.4 |
| 20260503184548 | 58 | 165 | 3.5 | 14.8 | 0.00 | 0.00 | 0.00 | 44 | 1018.3 |
| 20260503183050 | 58 | 251 | 3.5 | 13.9 | 0.00 | 0.00 | 0.00 | 44 | 1018.5 |
| 20260503181553 | 59 | 153 | 3.5 | 13.0 | 0.00 | 0.00 | 0.00 | 43 | 1018.7 |
| 20260503180100 | 60 | 261 | 5.2 | 14.8 | 0.00 | 0.00 | 0.00 | 40 | 1018.8 |
| 20260503174554 | 60 | 336 | 5.2 | 14.8 | 0.00 | 0.00 | 0.00 | 41 | 1019.2 |
| 20260503173051 | 59 | 206 | 3.5 | 14.8 | 0.00 | 0.00 | 0.00 | 40 | 1019.3 |
| 20260503171554 | 61 | 190 | 2.6 | 18.2 | 0.00 | 0.00 | 0.00 | 42 | 1019.4 |
| 20260503160107 | 58 | 130 | 3.5 | 15.6 | 0.00 | 0.00 | 0.00 | 45 | 1020.4 |
| 20260503081551 | 37 | 0 | 0.0 | 0.9 | 0.00 | 0.00 | 0.00 | 74 | 1020.2 |
| 20260503071603 | 37 | 0 | 0.0 | 1.7 | 0.00 | 0.00 | 0.00 | 73 | 1020.3 |
| 20260503070318 | 37 | 0 | 0.0 | 1.7 | 0.00 | 0.00 | 0.00 | 73 | 1020.4 |
| 20260503054613 | 36 | 0 | 0.0 | 0.9 | 0.00 | 0.00 | 0.00 | 76 | 1020.9 |
| 20260503053053 | 36 | 0 | 0.0 | 0.9 | 0.00 | 0.00 | 0.00 | 77 | 1021.1 |
| 20260503051553 | 37 | 0 | 0.0 | 0.0 | 0.00 | 0.00 | 0.00 | 75 | 1021.0 |
| 20260503050052 | 37 | 0 | 0.0 | 0.0 | 0.00 | 0.00 | 0.00 | 74 | 1021.0 |
| 20260503044549 | 37 | 0 | 0.0 | 0.0 | 0.00 | 0.00 | 0.00 | 74 | 1021.2 |
| 20260503043055 | 37 | 0 | 0.0 | 0.0 | 0.00 | 0.00 | 0.00 | 73 | 1021.0 |